Location: Baia Mare
(47.6567°N, 23.5850°E)
Time: 19:07:41
(UTC+03:00)

ISS - Pass Details

Date: 12 October 2018
Orbit: 403 x 408 km, 51.6° (Epoch: 23 October)

Event Time Altitude Azimuth Distance (km) Brightness Sun altitude
Rises 20:12:54 0° 281° (WNW) 2,337 1.9 -15.8°
Reaches altitude 10° 20:16:13 10° 246° (WSW) 1,470 -0.1 -16.4°
Maximum altitude 20:17:17 11° 227° (SW) 1,395 -0.6 -16.5°
Drops below altitude 10° 20:18:21 10° 208° (SSW) 1,465 -0.8 -16.7°
Enters shadow 20:21:00 - 176° (S) 2,103 -0.3 -17.2°
